SCP
0 0 -0 -0 -0 -0 -0 -0 -0 -0 -0 0 0 0 0 0 0 0 0 -0 0 0 0 0 0 0 0 0 0 -0 -0 0 0
0 0 -0 -0 -0 -0 -0 -0 -0 0 0 0 -0 -0 0 0 0 0 0 1 0 0 0 0 0 0 0 0 0 -0 -0 0 0
0 0 0 -0 -0 -0 -0 -0 0 0 1 0 -0 0 0 0 0 1 1 1 0 0 0 0 0 0 0 0 0 0 0 0 0
0 0 -0 -0 0 -0 0 0 0 0 0 0 -0 0 0 0 0 1 1 1 0 0 0 0 0 0 0 0 0 0 0 0 0
0 -0 -0 0 0 0 0 0 0 0 0 -0 -0 0 1 1 1 1 0 1 0 1 1 1 0 0 0 0 0 0 0 0 0
0 0 0 -0 -0 0 0 0 0 1 1 0 0 2 1 2 2 1 1 1 0 1 1 1 0 1 0 0 0 0 0 0 0
0 0 0 0 0 0 0 -0 0 2 2 1 2 1 1 3 3 2 1 2 2 2 1 1 1 0 0 0 0 0 0 0 0
0 0 0 -0 0 0 -0 -1 0 1 1 1 0 1 3 2 2 2 4 2 4 3 1 1 0 0 0 0 0 0 0 0 0
-0 0 0 0 -0 -0 -1 -0 -0 -1 -1 0 0 1 1 1 1 2 3 1 1 1 0 0 0 0 0 0 0 0 0 0 0
-0 0 0 -0 -1 -1 -1 -0 -0 -1 0 1 1 0 0 0 0 0 0 0 -0 -0 0 0 0 0 0 0 0 0 0 0 0
0 0 0 0 0 -0 -0 -0 -0 -0 -0 -0 -0 -0 -0 -0 0 0 0 0 -0 -0 -0 0 0 0 0 0 0 0 0 0 0
0 0 1 1 0 0 -0 -0 -0 -0 -0 0 -0 -0 -0 -0 0 0 0 0 0 0 0 0 0 0 0 0 0 0 0 0 0
1 0 0 1 0 0 -0 -0 -0 0 0 0 0 -0 0 0 0 0 0 0 0 0 0 0 0 0 0 0 0 0 0 0 0
1 0 1 0 0 0 0 0 0 1 1 0 0 0 0 1 0 0 0 0 0 0 0 0 0 0 0 0 0 0 0 0 0
1 1 1 0 1 0 1 1 1 0 0 0 1 0 1 1 1 1 0 0 0 0 0 0 0 0 0 0 0 0 0 0 0
1 1 1 1 1 1 2 1 1 1 1 1 1 1 1 2 1 0 0 0 0 0 0 0 0 0 0 0 0 0 0 0 0
1 1 1 1 1 1 1 2 1 1 2 2 2 2 1 1 1 0 0 0 0 0 0 0 0 0 0 0 0 0 0 0 0
1 0 0 1 1 1 1 1 1 1 2 2 2 1 1 1 0 0 0 0 0 0 0 0 0 0 0 0 0 0 0 0 0
0 0 0 1 1 1 1 1 3 4 1 1 1 1 1 1 0 0 0 0 0 0 0 0 0 0 0 0 0 0 0 0 0
0 0 1 2 1 1 1 1 1 1 1 1 1 1 1 1 0 0 0 0 0 0 0 0 0 0 0 0 0 0 0 0 0
Wind_Speed_500mb
8 35 50 50 53 49 44 47 48 45 45 43 40 33 28 26 27 20 17 18 15 10 11 12 6 5 7 10 9 10 19 9 20
21 29 44 47 51 51 47 47 50 49 46 44 43 36 32 28 27 25 17 22 20 16 19 10 10 9 6 10 11 12 16 13 12
19 28 37 46 50 48 45 45 47 48 48 51 48 41 34 29 31 29 26 22 22 21 20 16 8 7 3 4 14 14 13 12 24
13 10 33 42 45 47 43 44 49 52 50 50 47 43 37 34 32 31 29 25 24 22 17 12 8 2 3 6 8 11 11 13 21
12 8 29 34 41 46 45 48 53 55 50 47 44 46 43 36 35 35 31 28 28 25 17 11 6 3 5 5 7 16 15 11 10
12 9 21 33 45 50 48 51 58 57 52 51 47 51 45 41 42 37 34 33 29 27 22 14 7 4 7 12 19 15 13 11 11
3 18 28 36 45 48 47 46 52 58 56 56 62 52 46 44 46 46 43 44 39 30 24 18 10 8 10 16 17 13 8 11 11
13 22 34 46 49 51 47 46 47 48 58 67 53 50 50 44 45 47 53 56 52 38 28 16 12 8 9 12 9 11 10 10 9
13 25 36 45 50 51 53 51 49 48 49 53 56 45 38 43 47 55 51 40 38 46 29 17 12 10 9 12 15 8 3 6 8
17 29 41 49 54 54 52 51 51 51 57 50 45 41 40 41 55 57 47 40 36 26 20 16 15 9 13 13 7 1 9 13 11
17 33 44 48 51 50 46 45 48 53 59 56 47 31 28 35 41 46 51 45 37 26 17 14 12 11 11 7 9 14 11 11 11
14 32 39 43 41 43 46 50 54 58 49 45 36 31 40 42 47 49 42 43 33 24 19 17 16 13 10 13 16 12 8 14 7
6 23 36 40 38 39 44 47 51 44 39 38 32 34 36 45 48 46 45 40 31 27 22 18 16 13 15 17 15 13 8 16 5
10 21 31 37 38 38 39 42 43 36 32 29 31 37 40 45 42 44 38 36 33 27 22 21 19 19 19 20 17 11 10 10 10
16 26 31 36 39 36 38 42 40 33 23 24 35 42 44 39 40 42 37 33 29 25 26 21 20 20 18 15 13 9 5 4 2
18 25 31 34 36 40 39 42 35 29 23 28 35 42 48 51 46 38 35 31 27 26 23 20 20 19 16 13 11 9 2 2 4
19 25 28 32 36 39 40 42 30 29 37 39 40 45 45 47 40 36 31 27 25 22 23 21 21 20 18 15 14 12 13 13 13
24 25 28 30 35 40 41 39 31 35 37 42 50 48 46 39 37 31 32 27 25 21 24 23 21 20 18 16 14 18 20 17 13
27 33 35 33 40 39 35 41 37 35 46 44 46 45 41 33 33 32 31 31 34 34 22 32 36 33 25 18 21 15 19 22 19
20 23 32 32 36 40 36 29 35 37 46 47 43 38 47 41 33 33 30 24 22 21 24 23 26 27 28 26 18 17 20 20 21
Wind_Direction_500mb
164 190 195 198 197 201 191 190 185 183 187 189 187 190 189 191 189 191 193 183 178 181 168 173 215 100 69 44 11 5 2 4 349
161 189 194 197 198 199 193 191 187 183 183 188 190 187 185 188 185 186 201 185 178 178 162 172 143 107 68 28 357 351 352 332 339
152 176 195 193 199 197 191 193 191 186 187 193 190 185 184 186 186 187 192 190 165 165 162 166 139 124 105 327 337 337 344 339 316
55 193 183 199 192 188 185 189 190 189 188 185 181 181 183 187 184 187 175 178 171 165 157 158 165 188 177 6 342 321 347 344 315
54 278 174 195 184 174 180 184 185 187 186 182 181 188 180 186 183 184 175 180 169 164 173 185 163 228 50 54 327 329 330 342 333
159 186 165 183 173 172 179 182 183 183 182 182 178 189 183 184 194 188 177 177 170 170 182 186 175 184 276 326 332 337 340 353 353
251 165 162 169 166 175 176 178 178 180 179 179 187 191 175 195 189 185 180 179 165 180 181 191 224 281 320 325 330 340 349 344 347
237 171 172 167 173 178 178 178 179 179 176 187 190 185 191 198 192 188 180 181 168 186 193 208 239 260 304 330 337 326 330 3 27
201 185 175 172 173 178 177 182 182 179 182 175 177 180 186 195 195 186 182 199 196 184 186 212 240 247 295 289 299 325 326 87 79
194 185 181 177 179 182 184 182 178 180 169 170 175 183 205 204 195 195 216 190 187 178 187 208 245 272 290 298 295 99 121 118 103
207 189 188 186 185 179 180 178 175 170 174 184 187 196 180 184 187 189 191 192 197 193 212 222 240 236 254 238 145 135 135 118 90
216 192 191 191 191 182 174 174 170 169 177 188 194 189 180 183 181 191 191 186 189 201 202 205 207 219 212 165 154 145 120 102 84
199 191 189 187 186 184 180 177 170 167 174 185 180 173 172 174 182 176 174 182 185 183 191 195 185 190 175 166 166 155 137 129 141
212 189 183 185 183 184 182 181 181 173 172 176 178 168 170 180 179 173 179 182 185 185 172 177 178 176 177 178 178 169 151 147 109
210 190 180 182 176 179 180 181 183 184 186 179 171 173 173 177 175 177 177 178 177 172 184 186 184 180 166 186 194 186 165 142 151
183 181 174 176 177 177 174 175 174 181 187 177 170 172 171 174 176 176 178 175 178 181 177 169 163 170 172 197 209 235 207 219 302
165 172 170 175 171 169 168 168 169 181 188 178 168 168 174 168 169 173 170 168 168 166 167 174 175 180 188 203 213 223 271 305 318
163 159 159 172 172 167 167 173 186 200 190 175 170 174 161 159 169 159 159 157 162 175 180 187 189 192 199 205 218 223 220 241 268
175 173 170 159 170 170 176 185 182 177 172 167 163 161 158 165 159 161 162 174 176 180 197 193 191 196 185 209 222 226 247 259 266
185 174 176 166 162 175 167 169 168 170 166 169 163 157 164 169 166 166 174 168 169 177 198 197 206 220 218 222 238 242 254 260 276
Wind_Speed_850mb
8 35 50 50 53 49 44 47 48 45 45 43 40 33 28 26 27 20 17 18 15 10 11 12 6 5 7 10 9 10 19 9 20
21 29 44 47 51 51 47 47 50 49 46 44 43 36 32 28 27 25 17 22 20 16 19 10 10 9 6 10 11 12 16 13 12
19 28 37 46 50 48 45 45 47 48 48 51 48 41 34 29 31 29 26 22 22 21 20 16 8 7 3 4 14 14 13 12 24
13 10 33 42 45 47 43 44 49 52 50 50 47 43 37 34 32 31 29 25 24 22 17 12 8 2 3 6 8 11 11 13 21
12 8 29 34 41 46 45 48 53 55 50 47 44 46 43 36 35 35 31 28 28 25 17 11 6 3 5 5 7 16 15 11 10
12 9 21 33 45 50 48 51 58 57 52 51 47 51 45 41 42 37 34 33 29 27 22 14 7 4 7 12 19 15 13 11 11
3 18 28 36 45 48 47 46 52 58 56 56 62 52 46 44 46 46 43 44 39 30 24 18 10 8 10 16 17 13 8 11 11
13 22 34 46 49 51 47 46 47 48 58 67 53 50 50 44 45 47 53 56 52 38 28 16 12 8 9 12 9 11 10 10 9
13 25 36 45 50 51 53 51 49 48 49 53 56 45 38 43 47 55 51 40 38 46 29 17 12 10 9 12 15 8 3 6 8
17 29 41 49 54 54 52 51 51 51 57 50 45 41 40 41 55 57 47 40 36 26 20 16 15 9 13 13 7 1 9 13 11
17 33 44 48 51 50 46 45 48 53 59 56 47 31 28 35 41 46 51 45 37 26 17 14 12 11 11 7 9 14 11 11 11
14 32 39 43 41 43 46 50 54 58 49 45 36 31 40 42 47 49 42 43 33 24 19 17 16 13 10 13 16 12 8 14 7
6 23 36 40 38 39 44 47 51 44 39 38 32 34 36 45 48 46 45 40 31 27 22 18 16 13 15 17 15 13 8 16 5
10 21 31 37 38 38 39 42 43 36 32 29 31 37 40 45 42 44 38 36 33 27 22 21 19 19 19 20 17 11 10 10 10
16 26 31 36 39 36 38 42 40 33 23 24 35 42 44 39 40 42 37 33 29 25 26 21 20 20 18 15 13 9 5 4 2
18 25 31 34 36 40 39 42 35 29 23 28 35 42 48 51 46 38 35 31 27 26 23 20 20 19 16 13 11 9 2 2 4
19 25 28 32 36 39 40 42 30 29 37 39 40 45 45 47 40 36 31 27 25 22 23 21 21 20 18 15 14 12 13 13 13
24 25 28 30 35 40 41 39 31 35 37 42 50 48 46 39 37 31 32 27 25 21 24 23 21 20 18 16 14 18 20 17 13
27 33 35 33 40 39 35 41 37 35 46 44 46 45 41 33 33 32 31 31 34 34 22 32 36 33 25 18 21 15 19 22 19
20 23 32 32 36 40 36 29 35 37 46 47 43 38 47 41 33 33 30 24 22 21 24 23 26 27 28 26 18 17 20 20 21
Wind_Direction_850mb
164 190 195 198 197 201 191 190 185 183 187 189 187 190 189 191 189 191 193 183 178 181 168 173 215 100 69 44 11 5 2 4 349
161 189 194 197 198 199 193 191 187 183 183 188 190 187 185 188 185 186 201 185 178 178 162 172 143 107 68 28 357 351 352 332 339
152 176 195 193 199 197 191 193 191 186 187 193 190 185 184 186 186 187 192 190 165 165 162 166 139 124 105 327 337 337 344 339 316
55 193 183 199 192 188 185 189 190 189 188 185 181 181 183 187 184 187 175 178 171 165 157 158 165 188 177 6 342 321 347 344 315
54 278 174 195 184 174 180 184 185 187 186 182 181 188 180 186 183 184 175 180 169 164 173 185 163 228 50 54 327 329 330 342 333
159 186 165 183 173 172 179 182 183 183 182 182 178 189 183 184 194 188 177 177 170 170 182 186 175 184 276 326 332 337 340 353 353
251 165 162 169 166 175 176 178 178 180 179 179 187 191 175 195 189 185 180 179 165 180 181 191 224 281 320 325 330 340 349 344 347
237 171 172 167 173 178 178 178 179 179 176 187 190 185 191 198 192 188 180 181 168 186 193 208 239 260 304 330 337 326 330 3 27
201 185 175 172 173 178 177 182 182 179 182 175 177 180 186 195 195 186 182 199 196 184 186 212 240 247 295 289 299 325 326 87 79
194 185 181 177 179 182 184 182 178 180 169 170 175 183 205 204 195 195 216 190 187 178 187 208 245 272 290 298 295 99 121 118 103
207 189 188 186 185 179 180 178 175 170 174 184 187 196 180 184 187 189 191 192 197 193 212 222 240 236 254 238 145 135 135 118 90
216 192 191 191 191 182 174 174 170 169 177 188 194 189 180 183 181 191 191 186 189 201 202 205 207 219 212 165 154 145 120 102 84
199 191 189 187 186 184 180 177 170 167 174 185 180 173 172 174 182 176 174 182 185 183 191 195 185 190 175 166 166 155 137 129 141
212 189 183 185 183 184 182 181 181 173 172 176 178 168 170 180 179 173 179 182 185 185 172 177 178 176 177 178 178 169 151 147 109
210 190 180 182 176 179 180 181 183 184 186 179 171 173 173 177 175 177 177 178 177 172 184 186 184 180 166 186 194 186 165 142 151
183 181 174 176 177 177 174 175 174 181 187 177 170 172 171 174 176 176 178 175 178 181 177 169 163 170 172 197 209 235 207 219 302
165 172 170 175 171 169 168 168 169 181 188 178 168 168 174 168 169 173 170 168 168 166 167 174 175 180 188 203 213 223 271 305 318
163 159 159 172 172 167 167 173 186 200 190 175 170 174 161 159 169 159 159 157 162 175 180 187 189 192 199 205 218 223 220 241 268
175 173 170 159 170 170 176 185 182 177 172 167 163 161 158 165 159 161 162 174 176 180 197 193 191 196 185 209 222 226 247 259 266
185 174 176 166 162 175 167 169 168 170 166 169 163 157 164 169 166 166 174 168 169 177 198 197 206 220 218 222 238 242 254 260 276